Location: Unspecified
(0.0000°N, 0.0000°E)
Time: 17:36:59
(UTC+00:00)

Vanguard 3 - Pass Details

Date: 03 February 2023
Orbit: 509 x 3249 km, 33.3° (Epoch: 20 March)

Event Time Altitude Azimuth Distance (km) Brightness Sun altitude
Rises 00:59:37 0° 315° (NW) 6,748 - -69.9°
Reaches altitude 10° 01:04:06 10° 321° (NW) 5,941 - -69.2°
Maximum altitude 01:23:05 53° 33° (NNE) 3,658 - -66.1°
Exits shadow 01:31:48 34° 88° (E) 4,091 10.6 -64.6°
Drops below altitude 10° 01:39:29 10° 106° (ESE) 5,268 11.5 -63.1°
Sets 01:43:07 0° 110° (ESE) 5,979 12.0 -62.4°
